Dewpoint
7 10 1 0 -1 -1 -0 6 7 9 9 9 8 8 7 7 7 8 9 6 5 7 7 6 7 8 8 8 6 6 2 -2 -1 2 2 1 4 7 8 11 13 11 3
8 10 2 1 0 -1 -1 3 4 5 7 8 8 8 7 7 7 7 8 10 6 7 9 9 9 9 9 9 9 8 7 1 -3 2 9 11 2 2 4 8 11 2 3
10 12 10 6 2 1 -0 1 2 3 3 3 5 6 7 6 6 7 7 7 7 3 7 9 10 10 10 10 10 9 9 8 5 8 10 12 8 2 2 3 2 2 2
12 12 11 10 10 7 2 1 1 1 2 3 4 7 6 4 3 3 5 7 7 6 3 4 9 10 9 10 10 9 8 9 9 10 9 8 10 -4 -3 -0 4 5 6
12 11 10 10 10 10 10 7 2 3 4 7 8 8 5 7 7 6 3 3 5 7 7 5 4 8 9 9 10 10 8 7 9 10 10 8 10 6 -3 -4 4 4 9
12 9 9 9 9 9 8 9 10 5 8 8 9 10 10 10 10 10 8 6 4 3 4 5 6 5 5 8 9 9 10 8 9 11 9 10 11 5 1 -1 -1 -2 -2
12 10 9 9 9 8 5 3 5 10 7 9 11 11 11 10 10 10 9 9 8 6 6 4 3 4 5 5 4 7 9 8 6 9 8 9 10 7 4 1 -1 -2 -4
10 11 9 9 9 7 1 -6 -7 2 9 10 11 11 11 10 10 9 8 8 9 9 9 7 6 7 6 4 3 4 5 8 8 10 8 9 12 8 7 4 2 0 -3
10 10 9 8 6 -0 -13 -17 -13 -6 3 8 10 10 10 9 8 8 7 7 6 6 6 8 9 9 8 9 9 6 2 4 4 9 7 9 10 8 9 8 6 4 2
7 7 7 6 4 -5 -10 -16 -12 -8 -4 0 3 4 2 -2 -6 -8 -12 -14 -16 -10 -5 -0 1 4 9 9 8 9 9 3 10 10 9 10 9 9 10 9 8 7 5
5 5 5 4 1 1 2 -8 -3 -9 -7 -6 -3 -11 -4 -6 -6 -8 -24 -25 -26 -24 -24 -24 -24 -21 -8 2 3 7 9 8 8 8 10 10 9 10 10 10 10 9 8
2 3 3 2 0 -1 -1 2 0 -1 -2 -1 -2 -4 -4 -6 -7 -5 -7 -9 -7 -6 -4 -3 -5 -1 1 0 1 2 6 7 8 9 9 9 9 9 10 10 11 9 9
1 1 2 -2 -7 -2 -4 -1 -2 -2 -3 -3 -6 -2 -2 -2 -2 -3 -3 -3 -3 -3 -3 -1 0 1 3 3 2 3 4 4 7 10 10 9 9 9 9 11 11 11 10
0 1 0 -2 -15 -5 -4 -4 -3 -4 -3 -1 0 -1 0 0 0 -0 -0 -1 -1 -2 -1 -2 -1 1 2 3 3 2 2 2 4 6 7 6 9 10 10 10 9 10 10
-0 1 -0 0 -1 -4 -3 -2 -2 -2 -1 1 2 0 2 1 1 1 1 -0 0 0 0 -0 -1 -1 0 1 3 2 2 2 3 3 4 2 3 8 10 11 11 10 9
-0 1 1 1 -2 -5 -5 -1 -1 -0 0 1 2 3 2 3 2 1 1 1 1 1 1 1 0 -1 -2 -1 1 2 3 3 3 3 2 3 2 4 7 8 10 10 10
-0 1 2 2 1 -1 -1 -0 -0 -0 0 1 2 -3 -2 2 3 2 2 2 2 1 1 1 1 0 -0 -1 -3 -1 0 1 2 2 1 2 2 1 1 3 5 7 9
-1 1 1 -1 2 1 1 0 0 1 1 1 2 2 -0 1 3 2 2 3 3 1 1 1 1 1 1 -0 -2 -3 -3 -1 1 1 1 2 2 1 1 1 1 2 4
-1 0 1 1 2 2 2 1 2 2 1 1 2 2 -3 -0 0 3 3 3 2 0 0 0 0 0 1 0 -1 -3 -3 -2 -2 1 1 2 1 1 1 1 0 2 3
-1 1 2 2 2 2 2 2 1 1 1 1 2 1 -2 2 0 3 2 1 -1 0 -0 -0 -2 -1 -2 -1 -1 -3 -3 -2 -0 -0 1 -0 1 2 1 1 2 2 2
-1 0 1 1 2 2 2 1 1 1 1 2 3 -2 -3 -4 -5 -6 2 -2 -8 -2 -2 -4 -5 -3 -4 -5 -3 -3 -3 -5 -2 -0 -0 -2 0 1 1 0 1 1 1
-1 -0 0 -0 2 2 1 0 -0 -0 1 2 3 -3 -3 -3 -3 -1 -7 -8 -10 -7 -7 -10 -9 -8 -5 -6 -5 -4 -5 -5 -3 -4 -2 -1 0 -0 -0 -0 1 1 1
-2 -0 -1 -1 1 1 -0 -0 0 1 2 2 3 4 -1 -2 -2 -4 -6 -8 -10 -9 -9 -9 -7 -10 -5 -6 -6 -6 -7 -6 -5 -4 -4 -3 -3 -3 -3 -1 -1 -1 0
-1 -1 -1 -1 -0 1 0 -1 -0 -1 -1 1 3 3 -0 -1 -2 -3 -6 -8 -10 -9 -8 -7 -6 -9 -8 -6 -7 -8 -6 -6 -6 -7 -7 -4 -7 -7 -8 -5 -3 -4 -2
-1 -1 -0 -1 -1 -0 0 0 -0 0 -1 3 3 0 -0 -1 -1 -3 -6 -8 -9 -6 -7 -10 -10 -9 -6 -5 -6 -6 -7 -7 -7 -7 -8 -8 -8 -8 -9 -8 -8 -7 -1
-0 1 1 -0 -1 0 1 2 1 1 1 3 3 3 2 0 -1 -3 -7 -8 -5 -6 -8 -10 -11 -5 -4 -3 -4 -5 -7 -7 -7 -7 -7 -8 -8 -9 -9 -9 -9 -8 -8
Wind_Speed
7 8 9 9 9 7 6 6 5 6 7 7 8 9 10 11 11 10 11 10 9 9 9 9 9 10 10 10 11 11 11 9 9 9 10 9 7 8 9 10 7 3 6
7 7 9 9 8 8 7 6 5 4 4 5 6 7 8 9 9 9 8 8 7 6 6 6 7 8 9 9 9 9 9 10 9 11 12 15 6 4 4 6 7 4 5
7 7 9 11 10 9 7 6 6 6 5 5 6 7 7 8 8 8 7 7 7 5 3 3 4 5 7 8 8 7 8 10 11 14 14 7 10 5 4 3 1 3 4
6 7 7 10 11 10 8 7 6 6 5 7 8 8 7 8 8 7 6 6 6 6 5 2 3 4 5 7 8 5 5 8 10 10 10 3 2 7 4 3 4 5 4
7 7 8 10 11 9 9 7 6 6 6 6 6 5 6 8 8 8 8 7 6 6 6 5 4 5 5 5 6 4 5 5 8 9 6 3 4 7 5 4 4 3 3
8 4 6 5 7 7 7 6 5 3 3 2 3 4 6 7 8 9 9 8 8 8 8 7 6 6 6 6 5 4 4 3 2 3 0 8 1 10 6 2 1 3 3
6 3 4 5 7 7 8 7 6 4 3 3 3 5 6 8 8 8 9 8 7 7 8 8 9 8 7 7 7 7 6 5 5 10 6 5 9 10 7 5 3 2 2
2 2 5 4 7 8 9 7 4 2 2 2 3 4 5 6 7 8 8 8 8 7 7 7 7 8 8 9 8 8 8 8 6 9 7 13 7 10 8 6 5 5 5
5 3 4 5 9 9 7 5 4 3 3 3 4 4 6 7 8 8 8 9 9 9 8 9 8 8 8 8 9 8 8 7 7 5 7 9 9 10 9 8 7 6 6
5 4 4 4 5 5 7 7 8 7 6 5 5 6 7 11 11 9 9 9 10 10 9 10 10 10 9 9 10 10 8 5 6 11 10 11 11 13 11 10 9 8 8
4 4 3 3 4 6 7 8 10 10 11 11 11 10 11 8 9 12 14 13 14 12 13 12 11 10 8 13 14 11 6 7 8 11 13 14 12 14 12 12 11 10 9
4 4 3 5 5 6 5 7 9 9 9 8 9 10 10 13 15 13 17 19 21 20 22 22 20 17 13 10 8 10 7 10 7 11 18 16 17 14 14 14 13 14 12
6 5 4 5 6 7 6 6 5 6 7 10 13 12 13 12 12 11 13 13 14 18 16 15 16 16 17 15 12 10 9 7 9 12 16 18 16 13 14 14 15 14 14
7 7 7 6 7 10 7 6 7 7 9 10 12 12 13 12 13 14 14 14 15 16 17 16 15 17 16 16 15 14 13 9 8 10 17 14 13 14 14 16 18 17 16
8 8 7 7 7 8 9 8 9 9 10 11 12 13 12 12 14 14 15 15 16 16 17 17 16 15 14 14 15 14 13 12 11 6 11 17 14 13 13 13 15 18 17
9 9 8 7 8 9 9 10 10 10 10 10 11 12 14 13 13 14 14 14 15 16 16 16 17 17 16 15 14 15 12 11 11 11 8 13 17 15 13 13 13 15 17
10 11 10 8 8 9 10 10 9 9 9 9 10 13 14 12 13 13 13 14 14 15 16 16 16 15 15 16 15 14 13 12 10 10 10 9 11 16 17 14 12 13 13
11 12 11 9 9 9 9 8 7 8 7 7 6 8 10 12 12 11 12 14 15 15 16 17 17 17 15 16 17 16 14 13 13 10 10 10 11 9 14 16 14 13 12
13 13 12 11 10 9 9 7 7 8 5 5 6 5 9 11 12 11 11 13 13 13 15 18 18 18 18 18 20 17 17 16 13 13 12 12 11 11 11 15 16 16 15
14 14 13 12 11 11 9 7 5 5 4 4 4 3 8 8 11 10 10 13 13 14 15 18 19 17 16 18 20 20 17 15 11 12 12 12 11 12 12 13 11 12 17
15 16 15 14 14 12 9 7 6 5 5 3 2 3 5 6 8 9 9 11 16 13 17 18 18 17 16 17 19 21 17 12 10 12 11 16 12 13 13 13 11 10 11
18 18 17 15 16 14 10 9 7 6 5 4 3 1 2 5 7 9 12 13 17 14 17 21 22 20 15 16 18 16 19 15 11 19 12 11 11 15 12 12 12 11 11
20 20 18 17 16 16 12 10 9 8 7 4 2 1 3 5 9 11 13 15 17 16 18 19 19 19 16 14 14 12 12 17 23 14 16 12 12 15 15 13 13 11 12
21 20 19 18 17 16 15 12 12 9 7 7 6 5 6 8 10 12 14 15 16 16 18 16 15 17 16 15 15 11 12 15 19 19 16 17 15 16 16 15 15 16 11
22 21 20 19 18 17 16 15 13 11 9 6 6 6 8 11 10 12 14 16 16 13 16 16 17 17 15 15 14 15 15 14 14 18 24 20 19 16 16 16 17 16 12
24 22 20 20 19 18 17 16 14 12 10 9 7 5 5 5 7 12 12 14 13 16 16 16 16 14 14 14 13 13 13 15 16 18 21 22 21 20 18 17 16 15 14
Wind_Direction
25 5 20 27 31 31 43 52 56 55 58 58 53 49 49 48 49 52 56 54 72 81 87 88 77 65 61 55 58 54 51 50 55 60 55 45 71 85 89 85 83 41 65
50 20 24 37 38 42 47 50 54 54 54 49 46 45 41 40 45 51 55 59 60 78 80 67 62 55 49 44 38 46 57 59 59 66 53 44 32 68 94 107 132 43 60
73 86 24 38 40 46 53 54 52 47 48 48 48 45 40 37 37 40 41 36 33 44 59 43 43 46 47 47 40 55 49 54 70 69 54 121 324 26 49 68 70 41 52
59 76 42 38 35 40 44 48 50 49 52 55 53 48 41 39 31 25 27 24 14 19 23 7 345 7 20 29 32 54 57 47 49 65 64 68 310 7 9 47 53 43 66
82 66 25 30 25 29 36 43 49 51 60 72 77 58 44 37 27 23 16 7 357 359 0 359 344 330 340 359 17 38 35 31 58 44 67 22 47 336 354 7 24 38 61
82 49 22 17 17 17 19 22 38 65 75 82 69 45 37 27 24 24 16 6 359 350 344 340 339 333 323 319 326 338 346 357 42 346 110 323 316 320 335 0 360 329 334
90 6 356 357 346 358 4 9 9 18 22 22 29 20 20 17 15 12 7 6 1 353 348 341 335 331 326 320 312 303 305 317 311 356 314 309 259 322 335 332 317 281 305
72 31 355 337 341 345 345 347 353 10 23 10 28 17 10 5 360 359 2 0 360 356 350 340 332 330 330 325 314 307 299 292 299 309 312 298 299 301 319 330 326 316 305
102 100 73 41 356 349 354 15 37 49 47 28 17 5 2 359 354 352 349 346 346 344 342 341 337 331 325 324 326 321 308 307 312 288 299 262 290 294 304 317 323 317 309
107 86 75 46 19 14 22 49 57 54 49 40 25 14 14 18 5 4 358 357 355 350 344 335 330 327 328 329 323 320 326 350 335 311 288 273 277 284 288 294 301 310 308
107 114 104 50 56 54 46 50 52 55 49 45 36 44 49 47 48 36 33 29 26 22 18 7 358 349 6 356 347 335 341 325 301 293 282 281 278 278 282 279 284 291 295
144 130 99 94 74 71 70 64 53 56 59 67 55 67 46 49 46 37 30 32 26 37 24 21 24 24 17 11 343 342 325 310 335 288 272 280 275 269 268 264 268 272 279
149 135 90 83 94 91 95 84 73 65 65 51 60 64 58 56 54 43 37 31 30 24 27 29 18 19 17 20 12 358 350 347 291 296 284 272 277 273 268 262 262 269 270
144 132 123 109 96 111 94 88 75 79 70 67 71 60 55 53 47 44 43 35 32 29 29 29 21 19 19 14 15 13 9 5 333 331 309 296 291 283 270 263 265 269 270
151 139 129 110 97 91 97 94 94 87 86 73 64 68 62 57 50 46 40 36 31 28 24 22 21 18 14 9 8 12 11 7 9 359 324 327 322 308 298 285 272 266 267
161 150 137 119 110 108 115 109 96 90 80 77 70 66 58 58 54 42 36 31 27 22 22 17 18 14 11 6 356 353 355 0 357 360 349 332 340 335 325 314 303 281 275
167 163 150 134 123 119 108 104 107 103 91 79 68 67 63 60 43 43 30 25 22 16 17 13 13 10 5 3 353 341 340 335 339 347 349 350 342 336 339 322 322 318 294
176 168 158 157 143 127 129 114 115 109 103 93 77 61 58 51 49 36 29 20 23 14 10 10 5 3 0 359 350 337 326 315 313 328 329 339 338 344 337 330 335 328 328
186 178 170 166 156 146 140 144 142 121 109 96 77 52 48 36 37 42 24 19 21 14 9 9 5 359 358 351 348 343 324 314 297 300 311 320 323 336 334 335 343 338 326
190 186 180 176 176 165 164 154 151 141 116 98 82 51 53 28 31 44 20 17 22 7 8 5 4 357 356 345 346 338 335 317 306 291 306 318 312 322 324 330 338 326 334
197 193 188 186 189 181 179 169 172 167 158 128 91 62 49 36 31 31 22 13 15 7 0 359 358 354 353 346 345 344 343 332 303 317 297 311 306 321 323 317 327 317 323
201 196 195 192 194 188 188 183 185 187 172 184 157 147 16 8 14 9 10 5 2 4 353 353 351 354 348 353 344 340 339 335 349 322 315 318 306 329 320 319 316 315 312
202 199 198 195 196 194 192 195 189 190 191 186 185 125 312 332 349 357 354 354 355 353 349 348 343 348 343 346 344 338 335 324 318 316 311 325 314 315 320 313 315 313 309
205 203 199 198 198 199 197 202 201 202 210 214 197 209 284 307 328 339 342 342 344 347 341 342 336 341 340 338 337 330 318 308 312 310 304 301 313 310 313 311 307 308 308
207 205 200 200 199 200 206 198 215 212 222 221 214 255 263 292 311 322 330 334 337 342 334 336 334 336 337 331 329 324 319 313 307 302 306 307 303 304 304 306 305 308 298
208 204 201 200 202 203 206 209 209 216 217 221 228 246 259 264 301 313 329 333 336 331 327 329 329 330 326 322 318 320 315 312 310 307 304 305 304 304 302 304 305 297 297
Height
1584 1581 1577 1576 1575 1574 1573 1573 1572 1572 1571 1570 1569 1568 1567 1566 1565 1564 1563 1562 1561 1561 1560 1559 1558 1557 1556 1555 1554 1554 1553 1552 1552 1551 1551 1550 1549 1549 1548 1548 1549 1550 1547
1585 1582 1578 1577 1576 1575 1574 1574 1573 1573 1572 1571 1571 1570 1569 1568 1567 1565 1565 1564 1562 1562 1562 1561 1560 1559 1559 1558 1557 1556 1555 1553 1553 1553 1552 1551 1551 1551 1550 1550 1550 1549 1548
1586 1584 1579 1578 1577 1576 1576 1575 1575 1574 1574 1573 1573 1572 1571 1569 1568 1567 1566 1565 1565 1563 1563 1562 1561 1561 1560 1559 1558 1557 1557 1556 1555 1554 1553 1553 1552 1552 1552 1551 1551 1550 1549
1583 1582 1580 1580 1579 1578 1578 1577 1577 1576 1575 1574 1574 1574 1572 1571 1569 1568 1567 1566 1566 1565 1563 1563 1562 1562 1561 1561 1560 1559 1558 1558 1557 1556 1555 1560 1556 1554 1553 1552 1552 1551 1550
1584 1583 1582 1582 1581 1580 1579 1578 1577 1577 1576 1576 1575 1574 1573 1572 1571 1570 1568 1567 1566 1565 1565 1564 1564 1563 1562 1562 1561 1560 1560 1559 1559 1557 1557 1560 1559 1555 1554 1553 1552 1551 1552
1584 1583 1582 1582 1582 1581 1580 1579 1578 1577 1576 1576 1576 1575 1574 1573 1572 1570 1569 1568 1568 1567 1566 1565 1564 1564 1563 1562 1561 1561 1561 1560 1559 1556 1558 1558 1559 1557 1555 1553 1553 1553 1552
1585 1583 1583 1583 1582 1581 1580 1580 1579 1579 1578 1578 1577 1576 1575 1574 1573 1571 1570 1569 1568 1567 1566 1565 1564 1563 1563 1562 1562 1561 1561 1560 1559 1557 1559 1559 1556 1557 1556 1555 1554 1552 1552
1584 1584 1583 1583 1582 1582 1581 1579 1579 1578 1578 1577 1577 1576 1575 1574 1573 1571 1570 1569 1568 1567 1565 1564 1563 1562 1562 1562 1562 1561 1560 1560 1560 1561 1561 1557 1554 1556 1556 1555 1554 1553 1552
1586 1586 1585 1585 1582 1581 1580 1579 1578 1578 1578 1578 1577 1577 1576 1575 1574 1572 1571 1569 1568 1567 1565 1564 1563 1562 1561 1561 1560 1560 1560 1560 1560 1560 1561 1556 1556 1556 1556 1555 1554 1553 1552
1587 1587 1586 1586 1584 1582 1581 1580 1579 1579 1579 1579 1578 1577 1576 1575 1573 1572 1571 1569 1568 1566 1565 1564 1563 1562 1562 1561 1560 1559 1559 1559 1560 1560 1556 1556 1555 1556 1555 1554 1553 1552 1552
1586 1587 1586 1585 1583 1583 1583 1581 1581 1580 1580 1579 1579 1578 1578 1577 1577 1574 1572 1570 1569 1567 1566 1564 1563 1562 1561 1561 1559 1559 1559 1560 1560 1559 1552 1553 1554 1554 1553 1552 1552 1551 1551
1586 1587 1586 1584 1584 1585 1586 1584 1583 1583 1582 1581 1580 1580 1580 1578 1577 1577 1574 1572 1571 1569 1568 1566 1564 1563 1562 1561 1561 1560 1559 1558 1558 1553 1551 1552 1552 1552 1551 1550 1550 1549 1549
1586 1587 1587 1583 1583 1586 1585 1587 1588 1586 1585 1583 1581 1582 1580 1581 1580 1580 1578 1577 1575 1572 1571 1570 1567 1565 1563 1561 1560 1559 1557 1557 1555 1551 1551 1551 1549 1549 1549 1548 1548 1547 1547
1586 1586 1586 1584 1584 1584 1588 1589 1588 1588 1587 1586 1584 1585 1584 1583 1583 1581 1580 1579 1578 1575 1572 1571 1570 1568 1566 1563 1561 1560 1557 1556 1555 1554 1548 1548 1547 1546 1546 1546 1546 1545 1545
1587 1587 1587 1585 1585 1585 1587 1587 1588 1589 1588 1588 1586 1584 1585 1585 1584 1584 1582 1581 1579 1578 1575 1573 1570 1569 1567 1566 1562 1561 1559 1557 1555 1553 1550 1548 1546 1544 1543 1543 1542 1542 1541
1586 1586 1587 1586 1585 1585 1586 1587 1588 1589 1590 1589 1588 1587 1586 1586 1586 1586 1584 1583 1581 1579 1577 1575 1572 1570 1568 1567 1565 1562 1560 1558 1556 1553 1553 1550 1546 1544 1542 1540 1539 1538 1538
1585 1585 1586 1586 1586 1586 1587 1589 1590 1592 1592 1591 1590 1588 1587 1587 1587 1587 1586 1584 1583 1581 1579 1577 1574 1571 1569 1567 1566 1564 1562 1559 1556 1554 1554 1551 1549 1544 1542 1539 1538 1537 1536
1585 1585 1585 1587 1587 1589 1589 1591 1592 1592 1593 1593 1593 1591 1589 1588 1587 1589 1588 1585 1584 1583 1580 1577 1574 1571 1569 1567 1565 1564 1561 1559 1556 1555 1553 1551 1549 1547 1544 1539 1537 1535 1534
1584 1585 1586 1587 1588 1589 1589 1592 1592 1592 1594 1594 1594 1593 1590 1589 1588 1589 1588 1586 1586 1584 1580 1577 1574 1572 1569 1567 1564 1562 1559 1557 1555 1554 1552 1550 1548 1546 1544 1541 1537 1535 1533
1581 1584 1585 1587 1587 1588 1590 1591 1593 1594 1595 1595 1595 1592 1591 1591 1589 1589 1588 1586 1585 1583 1580 1577 1574 1573 1570 1567 1563 1561 1556 1555 1553 1553 1551 1549 1548 1544 1544 1542 1539 1537 1533
1579 1582 1583 1585 1586 1587 1589 1592 1594 1595 1595 1595 1594 1592 1591 1591 1588 1588 1588 1586 1584 1583 1579 1577 1574 1572 1570 1567 1562 1559 1555 1553 1551 1551 1550 1548 1546 1543 1541 1541 1539 1537 1536
1576 1579 1581 1583 1584 1586 1589 1592 1593 1595 1595 1594 1592 1590 1590 1590 1589 1588 1586 1584 1582 1581 1578 1575 1572 1570 1569 1566 1563 1559 1555 1553 1550 1548 1547 1547 1544 1542 1540 1539 1537 1535 1534
1574 1576 1578 1580 1582 1585 1589 1590 1591 1592 1592 1593 1592 1591 1590 1589 1588 1586 1585 1583 1581 1580 1577 1574 1572 1569 1567 1566 1563 1562 1557 1554 1551 1547 1545 1544 1541 1541 1538 1537 1535 1532 1532
1571 1573 1576 1578 1580 1583 1585 1588 1590 1590 1592 1592 1592 1590 1588 1588 1587 1585 1583 1581 1579 1578 1575 1573 1571 1568 1565 1564 1562 1560 1558 1556 1552 1544 1544 1542 1540 1538 1537 1534 1532 1530 1529
1568 1571 1573 1576 1578 1580 1582 1585 1587 1589 1591 1591 1590 1588 1587 1585 1585 1583 1581 1579 1577 1575 1573 1570 1568 1566 1564 1562 1561 1557 1555 1553 1551 1547 1540 1539 1537 1535 1534 1532 1529 1527 1526
1565 1568 1570 1573 1576 1578 1579 1581 1584 1587 1589 1589 1589 1589 1588 1585 1583 1580 1579 1577 1575 1573 1571 1569 1566 1564 1562 1560 1558 1555 1553 1550 1547 1545 1540 1536 1533 1531 1530 1528 1526 1525 1523